Regional Weather Roundup
Issued by NWS Green Bay, WI

Home | Current Version | Previous Version | Graphics & Text | Print | Product List | Glossary Off
Versions: 1 2 3 4 5 6 7 8 9 10 11 12 13 14 15 16 17 18 19 20 21 22 23 24 25 26 27 28 29 30 31 32 33 34 35 36 37 38 39 40 41 42 43 44 45 46 47 48 49 50

000
ASUS43 KGRB 161759
RWRGRB

NORTH-CENTRAL AND NORTHEAST WISCONSIN REGIONAL WEATHER ROUNDUP
NATIONAL WEATHER SERVICE GREEN BAY WI
100 PM CDT WED APR 16 2014

WIZ005-009-010>012-018-019-161900-
NORTH CENTRAL WISCONSIN

CITY           SKY/WX    TMP DP  RH WIND       PRES   REMARKS
IRONWOOD       CLOUDY    27  21  80 E13       30.14F VSB 3/4
MANITOWISH WTR NOT AVBL
ARBOR VITAE    NOT AVBL
EAGLE RIVER    NOT AVBL
LAND O LAKES   NOT AVBL
RHINELANDER    SNOW      26  24  92 E14       30.15F VSB 1/4
PHILLIPS       NOT AVBL
ANTIGO         NOT AVBL
TOMAHAWK       NOT AVBL
MERRILL        NOT AVBL
$$

WIZ013-073-161900-
NORTHEAST WISCONSIN

CITY           SKY/WX    TMP DP  RH WIND       PRES   REMARKS
IRON MOUNTAIN  SNOW      28  25  88 SE7       30.25S VSB 1/4
MARINETTE      CLOUDY    30  28  93 SE10      30.28F
$$

WIZ017-030-035>037-045-161900-
CENTRAL WISCONSIN

CITY           SKY/WX    TMP DP  RH WIND       PRES   REMARKS
MEDFORD        NOT AVBL
WAUSAU         CLOUDY    32  27  81 E20       30.10F
MOSINEE        NOT AVBL
MARSHFIELD     PTSUNNY   35  27  72 SE21G29   30.04F
WISC RAPIDS      N/A     40  26  57 SE15G28   30.09F
STEVENS POINT  NOT AVBL
WAUPACA        NOT AVBL
SHAWANO        NOT AVBL
CLINTONVILLE   NOT AVBL
$$

WIZ038-039-048-051-161900-
FOX VALLEY

CITY           SKY/WX    TMP DP  RH WIND       PRES   REMARKS
NWS GREEN BAY  CLOUDY    37  28  70 SE23      30.24F
APPLETON       PTSUNNY   39  27  60 SE17      30.19F
OSHKOSH        PTSUNNY   42  28  57 SE17G24   30.17F
FOND DU LAC    MOSUNNY   44  28  53 SE21G30   30.17F
$$

WIZ022-050-052-161900-
EAST CENTRAL WISCONSIN

CITY           SKY/WX    TMP DP  RH WIND       PRES   REMARKS
STURGEON BAY   CLOUDY    32  27  80 SE12G20   30.29F
MANITOWOC      NOT AVBL
SHEBOYGAN      CLOUDY    38  29  70 SE18G26   30.25F
$$

LMZ563-521-522-541>543-161900-
LAKESHORE

STATION/POSITION TIME  TEMP    WIND        PRES    VSBY  WAVE
                       AIR SEA DIR/SP/G                  HT/PER
                 (UTC) (F)     (DEG/KT/KT) (MB)    (MI)  (FT/S)
SHEBOYGAN LKSHOR 1700   35     150/ 21/ 24 1025.6F
KEWAUNEE LKSHORE 1700   33     150/ 13/ 19 1026.2F
NORTHPORT PIER   1700   33     150/ 12/ 18 1026.8S
SISTER BAY LKSHO 1700   36     180/ 19/ 24   N/A
MENOMINEE LKSHOR 1700   31     120/ 11/ 13 1026.4F
$$



USA.gov is the U.S. government's official web portal to all federal, state and local government web resources and services.